NKS855 KDTW-KMYR

Flight info

Callsign NKS855
Flight time 1h 31m
Altitude 37000
Route LIDDS4 GRIVY EKN RDU/N0443F380 FAY
Aircraft A320/M-SDE3FGHIRWY/LB1

Departure

Time 2026-05-09 17:23
Airport Detroit Metropolitan Wayne County Airport (KDTW)

Arrival

Time 2026-05-09 18:55
Airport Myrtle Beach International Airport (KMYR)
Time Latitude Longitude Altitude Speed Heading
2026-05-09 16:54 42.22411 -83.35036 659 ft 0 kts 112°
2026-05-09 17:11 42.22419 -83.35065 659 ft 4 kts 112°
2026-05-09 17:11 42.22429 -83.35098 659 ft 4 kts 112°
2026-05-09 17:11 42.22439 -83.35132 659 ft 4 kts 112°
2026-05-09 17:11 42.22444 -83.35148 659 ft 0 kts 112°
2026-05-09 17:14 42.22442 -83.35141 659 ft 3 kts 112°
2026-05-09 17:14 42.22436 -83.35119 659 ft 1 kts 112°
2026-05-09 17:14 42.22422 -83.35121 659 ft 5 kts 218°
2026-05-09 17:14 42.22403 -83.35144 659 ft 1 kts 222°
2026-05-09 17:15 42.22398 -83.35150 659 ft 2 kts 222°
2026-05-09 17:15 42.22380 -83.35171 659 ft 7 kts 218°
2026-05-09 17:15 42.22335 -83.35223 659 ft 8 kts 258°
2026-05-09 17:15 42.22345 -83.35298 659 ft 8 kts 256°
2026-05-09 17:16 42.22305 -83.35345 659 ft 9 kts 207°
2026-05-09 17:17 42.21822 -83.35480 659 ft 21 kts 89°
2026-05-09 17:18 42.21821 -83.35273 659 ft 23 kts 88°
2026-05-09 17:18 42.21827 -83.35045 659 ft 25 kts 89°
2026-05-09 17:18 42.21829 -83.34836 659 ft 20 kts 88°
2026-05-09 17:18 42.21834 -83.34660 659 ft 16 kts 87°
2026-05-09 17:19 42.21849 -83.34521 659 ft 14 kts 58°
2026-05-09 17:19 42.21932 -83.34449 659 ft 15 kts 33°
2026-05-09 17:19 42.22027 -83.34366 659 ft 17 kts 33°
2026-05-09 17:19 42.22134 -83.34304 659 ft 16 kts 67°
2026-05-09 17:20 42.22221 -83.34225 659 ft 17 kts 27°
2026-05-09 17:20 42.22333 -83.34144 659 ft 19 kts 29°
2026-05-09 17:20 42.22457 -83.34051 659 ft 22 kts 29°
2026-05-09 17:20 42.22596 -83.33953 659 ft 24 kts 27°
2026-05-09 17:21 42.22738 -83.33849 659 ft 23 kts 28°
2026-05-09 17:21 42.22831 -83.33780 659 ft 11 kts 38°
2026-05-09 17:21 42.22833 -83.33693 659 ft 9 kts 114°
2026-05-09 17:21 42.22795 -83.33643 659 ft 8 kts 169°
2026-05-09 17:22 42.22773 -83.33655 659 ft 0 kts 210°
2026-05-09 17:22 42.22772 -83.33655 659 ft 0 kts 210°
2026-05-09 17:22 42.22708 -83.33704 659 ft 39 kts 208°
2026-05-09 17:23 42.22250 -83.34040 660 ft 108 kts 208°
2026-05-09 17:23 42.21426 -83.34643 728 ft 152 kts 207°
2026-05-09 17:23 42.20524 -83.35306 1309 ft 154 kts 210°
2026-05-09 17:23 42.19631 -83.36070 2058 ft 150 kts 208°
2026-05-09 17:25 42.14052 -83.36047 4021 ft 215 kts 183°
2026-05-09 17:25 42.12496 -83.35991 4536 ft 231 kts 182°
2026-05-09 17:25 42.10851 -83.35898 5057 ft 248 kts 181°
2026-05-09 17:25 42.09084 -83.35779 5716 ft 258 kts 182°
2026-05-09 17:26 42.07266 -83.35659 6499 ft 263 kts 182°
2026-05-09 17:26 42.05533 -83.35305 7217 ft 274 kts 168°
2026-05-09 17:26 42.03781 -83.33862 8009 ft 292 kts 139°
2026-05-09 17:26 42.02719 -83.31480 8741 ft 306 kts 111°
2026-05-09 17:27 42.02360 -83.28620 9465 ft 314 kts 97°
2026-05-09 17:27 42.02180 -83.25676 10190 ft 318 kts 97°
2026-05-09 17:27 42.01915 -83.22692 10764 ft 327 kts 100°
2026-05-09 17:27 42.01535 -83.19652 11205 ft 340 kts 99°
2026-05-09 17:28 42.01537 -83.16417 11605 ft 353 kts 83°
2026-05-09 17:28 42.01912 -83.13092 11994 ft 365 kts 78°
2026-05-09 17:28 42.02426 -83.09714 12537 ft 371 kts 76°
2026-05-09 17:28 42.02973 -83.06308 13152 ft 374 kts 77°
2026-05-09 17:29 42.03490 -83.02865 13763 ft 377 kts 78°
2026-05-09 17:29 42.03963 -82.99372 14364 ft 380 kts 79°
2026-05-09 17:29 42.04406 -82.95896 14937 ft 384 kts 79°
2026-05-09 17:29 42.04858 -82.92329 15485 ft 387 kts 79°
2026-05-09 17:30 42.05325 -82.88749 16036 ft 390 kts 79°
2026-05-09 17:30 42.05807 -82.85136 16573 ft 394 kts 78°
2026-05-09 17:30 42.06298 -82.81498 17091 ft 397 kts 78°
2026-05-09 17:30 42.06792 -82.77820 17621 ft 400 kts 78°
2026-05-09 17:31 42.07184 -82.74095 18124 ft 404 kts 88°
2026-05-09 17:31 42.06903 -82.70336 18639 ft 406 kts 102°
2026-05-09 17:32 42.03935 -82.55504 20576 ft 416 kts 106°
2026-05-09 17:32 42.03236 -82.51716 21039 ft 419 kts 105°
2026-05-09 17:32 42.02555 -82.47893 21491 ft 421 kts 105°
2026-05-09 17:33 42.01880 -82.44043 21942 ft 424 kts 105°
2026-05-09 17:33 42.01189 -82.40183 22378 ft 426 kts 105°
2026-05-09 17:33 42.00478 -82.36303 22802 ft 428 kts 106°
2026-05-09 17:33 41.99753 -82.32413 23222 ft 430 kts 106°
2026-05-09 17:34 41.99026 -82.28504 23606 ft 433 kts 106°
2026-05-09 17:35 41.92909 -82.05867 25740 ft 430 kts 142°
2026-05-09 17:35 41.90589 -82.03339 26069 ft 429 kts 148°
2026-05-09 17:36 41.88175 -82.00974 26381 ft 431 kts 149°
2026-05-09 17:36 41.85724 -81.98589 26702 ft 433 kts 149°
2026-05-09 17:36 41.83385 -81.96224 27000 ft 436 kts 147°
2026-05-09 17:36 41.80940 -81.93639 27311 ft 439 kts 146°
2026-05-09 17:37 41.78541 -81.91047 27610 ft 442 kts 146°
2026-05-09 17:37 41.76155 -81.88494 27895 ft 444 kts 147°
2026-05-09 17:37 41.73720 -81.85938 28188 ft 446 kts 147°
2026-05-09 17:37 41.71265 -81.83397 28477 ft 448 kts 148°
2026-05-09 17:38 41.68765 -81.80893 28743 ft 449 kts 149°
2026-05-09 17:38 41.66234 -81.78411 29009 ft 451 kts 149°
2026-05-09 17:38 41.63695 -81.75929 29285 ft 453 kts 149°
2026-05-09 17:39 41.58572 -81.70920 29795 ft 458 kts 149°
2026-05-09 17:39 41.55996 -81.68399 30046 ft 460 kts 149°
2026-05-09 17:39 41.53399 -81.65865 30288 ft 462 kts 149°
2026-05-09 17:39 41.50800 -81.63330 30523 ft 465 kts 149°
2026-05-09 17:40 41.48228 -81.60823 30746 ft 467 kts 149°
2026-05-09 17:40 41.45581 -81.58245 30977 ft 470 kts 150°
2026-05-09 17:40 41.42936 -81.55672 31195 ft 472 kts 150°
2026-05-09 17:40 41.40268 -81.53081 31418 ft 474 kts 150°
2026-05-09 17:41 41.37587 -81.50482 31612 ft 477 kts 150°
2026-05-09 17:41 41.34908 -81.47889 31912 ft 477 kts 150°
2026-05-09 17:41 41.32212 -81.45278 32138 ft 479 kts 150°
2026-05-09 17:41 41.29519 -81.42671 32430 ft 479 kts 150°
2026-05-09 17:42 41.26822 -81.40063 32682 ft 479 kts 150°
2026-05-09 17:42 41.24122 -81.37459 32964 ft 479 kts 150°
2026-05-09 17:42 41.21459 -81.34889 33212 ft 480 kts 151°
2026-05-09 17:42 41.18757 -81.32287 33475 ft 480 kts 151°
2026-05-09 17:43 41.16049 -81.29683 33739 ft 480 kts 151°
2026-05-09 17:43 41.13339 -81.27078 33974 ft 481 kts 151°
2026-05-09 17:43 41.10626 -81.24475 34229 ft 481 kts 151°
2026-05-09 17:43 41.07868 -81.22007 34452 ft 475 kts 158°
2026-05-09 17:44 41.04917 -81.20139 34661 ft 468 kts 165°
2026-05-09 17:44 41.01912 -81.18507 34869 ft 466 kts 167°
2026-05-09 17:44 40.98883 -81.16963 35094 ft 466 kts 167°
2026-05-09 17:44 40.95855 -81.15428 35319 ft 466 kts 167°
2026-05-09 17:45 40.92829 -81.13857 35529 ft 467 kts 167°
2026-05-09 17:45 40.89810 -81.12244 35682 ft 469 kts 166°
2026-05-09 17:45 40.86790 -81.10606 35907 ft 469 kts 166°
2026-05-09 17:45 40.83764 -81.08970 36097 ft 469 kts 166°
2026-05-09 17:46 40.80741 -81.07367 36289 ft 469 kts 167°
2026-05-09 17:46 40.77705 -81.05771 36474 ft 469 kts 167°
2026-05-09 17:46 40.74674 -81.04179 36620 ft 470 kts 167°
2026-05-09 17:46 40.71635 -81.02576 36775 ft 471 kts 167°
2026-05-09 17:47 40.68592 -81.00961 36939 ft 471 kts 167°
2026-05-09 17:47 40.62746 -80.97872 37239 ft 471 kts 167°
2026-05-09 17:47 40.59702 -80.96269 37385 ft 471 kts 167°
2026-05-09 17:48 40.56663 -80.94669 37532 ft 471 kts 167°
2026-05-09 17:48 40.51604 -80.92014 37764 ft 471 kts 167°
2026-05-09 17:49 40.45501 -80.88796 37963 ft 473 kts 167°
2026-05-09 17:49 40.42443 -80.87190 38081 ft 473 kts 167°
2026-05-09 17:49 40.39389 -80.85591 38200 ft 473 kts 167°
2026-05-09 17:49 40.36333 -80.83998 38309 ft 472 kts 167°
2026-05-09 17:50 40.33279 -80.82413 38374 ft 473 kts 167°
2026-05-09 17:50 40.28904 -80.80137 38509 ft 474 kts 167°
2026-05-09 17:50 40.25840 -80.78543 38602 ft 474 kts 167°
2026-05-09 17:51 40.19703 -80.75356 38761 ft 475 kts 167°
2026-05-09 17:51 40.13638 -80.72183 38874 ft 475 kts 167°
2026-05-09 17:52 40.07417 -80.68951 38885 ft 475 kts 167°
2026-05-09 17:52 40.01263 -80.65785 38889 ft 475 kts 167°
2026-05-09 17:53 39.95112 -80.62599 38896 ft 476 kts 167°
2026-05-09 17:53 39.89031 -80.59461 38903 ft 476 kts 168°
2026-05-09 17:54 39.82918 -80.56320 38894 ft 476 kts 168°
2026-05-09 17:54 39.76741 -80.53141 38856 ft 477 kts 168°
2026-05-09 17:55 39.70565 -80.49971 38863 ft 477 kts 168°
2026-05-09 17:55 39.64388 -80.46814 38864 ft 477 kts 168°
2026-05-09 17:56 39.58207 -80.43664 38862 ft 477 kts 168°
2026-05-09 17:57 39.48940 -80.38940 38877 ft 476 kts 168°
2026-05-09 17:57 39.42816 -80.35831 38930 ft 475 kts 168°
2026-05-09 17:58 39.36650 -80.32704 38905 ft 476 kts 168°
2026-05-09 17:58 39.30485 -80.29582 38878 ft 476 kts 168°
2026-05-09 17:59 39.24319 -80.26462 38870 ft 476 kts 168°
2026-05-09 17:59 39.18146 -80.23353 38865 ft 476 kts 169°
2026-05-09 18:00 39.11975 -80.20243 38868 ft 477 kts 169°
2026-05-09 18:00 39.05790 -80.17133 38873 ft 477 kts 169°
2026-05-09 18:01 38.99610 -80.14040 38887 ft 477 kts 169°
2026-05-09 18:01 38.93437 -80.10950 38944 ft 476 kts 169°
2026-05-09 18:02 38.87255 -80.08029 38953 ft 472 kts 172°
2026-05-09 18:02 38.81055 -80.05246 38936 ft 472 kts 172°
2026-05-09 18:03 38.74888 -80.02485 38906 ft 472 kts 172°
2026-05-09 18:03 38.68684 -79.99693 38879 ft 473 kts 172°
2026-05-09 18:04 38.62478 -79.96906 38878 ft 472 kts 172°
2026-05-09 18:04 38.56279 -79.94136 38884 ft 472 kts 173°
2026-05-09 18:05 38.50071 -79.91363 38889 ft 473 kts 173°
2026-05-09 18:05 38.43894 -79.88604 38899 ft 473 kts 173°
2026-05-09 18:06 38.37675 -79.85837 38912 ft 473 kts 173°
2026-05-09 18:06 38.31455 -79.83074 38915 ft 473 kts 173°
2026-05-09 18:07 38.25240 -79.80317 38926 ft 473 kts 173°
2026-05-09 18:07 38.19014 -79.77563 38933 ft 473 kts 173°
2026-05-09 18:08 38.12797 -79.74816 38934 ft 473 kts 173°
2026-05-09 18:08 38.06615 -79.72095 38945 ft 473 kts 173°
2026-05-09 18:09 38.00392 -79.69348 38947 ft 473 kts 173°
2026-05-09 18:09 37.94175 -79.66616 38940 ft 473 kts 174°
2026-05-09 18:10 37.87954 -79.63884 38943 ft 473 kts 174°
2026-05-09 18:10 37.81731 -79.61159 38968 ft 472 kts 174°
2026-05-09 18:11 37.75520 -79.58447 38985 ft 472 kts 174°
2026-05-09 18:11 37.69320 -79.55740 38980 ft 471 kts 174°
2026-05-09 18:12 37.63114 -79.53038 38942 ft 471 kts 174°
2026-05-09 18:12 37.56959 -79.50355 38905 ft 471 kts 174°
2026-05-09 18:13 37.50760 -79.47664 38895 ft 471 kts 174°
2026-05-09 18:13 37.44574 -79.44988 38948 ft 469 kts 174°
2026-05-09 18:14 37.38406 -79.42322 38925 ft 468 kts 175°
2026-05-09 18:14 37.32233 -79.39654 38885 ft 469 kts 175°
2026-05-09 18:15 37.26066 -79.36995 38887 ft 469 kts 175°
2026-05-09 18:15 37.19926 -79.34354 38905 ft 469 kts 175°
2026-05-09 18:16 37.13755 -79.31708 38965 ft 468 kts 175°
2026-05-09 18:16 37.07598 -79.29069 38980 ft 467 kts 175°
2026-05-09 18:17 37.01443 -79.26424 38965 ft 467 kts 176°
2026-05-09 18:17 36.95294 -79.23800 38938 ft 467 kts 176°
2026-05-09 18:18 36.89141 -79.21183 38912 ft 467 kts 176°
2026-05-09 18:18 36.82993 -79.18556 38928 ft 466 kts 176°
2026-05-09 18:19 36.76907 -79.15965 38981 ft 464 kts 176°
2026-05-09 18:19 36.67728 -79.12074 38933 ft 464 kts 176°
2026-05-09 18:20 36.61612 -79.09489 38894 ft 464 kts 177°
2026-05-09 18:20 36.55504 -79.06905 38642 ft 462 kts 176°
2026-05-09 18:21 36.52464 -79.05621 38339 ft 461 kts 177°
2026-05-09 18:21 36.49459 -79.04356 38101 ft 461 kts 177°
2026-05-09 18:21 36.46418 -79.03078 37850 ft 461 kts 177°
2026-05-09 18:21 36.43371 -79.01794 37606 ft 462 kts 176°
2026-05-09 18:22 36.40331 -79.00513 37361 ft 462 kts 176°
2026-05-09 18:22 36.37286 -78.99229 37116 ft 462 kts 176°
2026-05-09 18:22 36.34238 -78.97948 36873 ft 462 kts 176°
2026-05-09 18:22 36.31186 -78.96672 36628 ft 463 kts 176°
2026-05-09 18:23 36.28136 -78.95394 36383 ft 463 kts 176°
2026-05-09 18:23 36.25077 -78.94113 36137 ft 463 kts 176°
2026-05-09 18:23 36.22031 -78.92833 35889 ft 461 kts 176°
2026-05-09 18:23 36.19001 -78.91562 35643 ft 459 kts 176°
2026-05-09 18:24 36.15981 -78.90297 35396 ft 457 kts 176°
2026-05-09 18:24 36.12973 -78.89038 35149 ft 455 kts 176°
2026-05-09 18:24 36.10022 -78.87805 34904 ft 453 kts 176°
2026-05-09 18:25 36.04082 -78.85330 34409 ft 446 kts 176°
2026-05-09 18:25 36.01166 -78.84113 34163 ft 439 kts 177°
2026-05-09 18:25 35.98268 -78.82906 33932 ft 438 kts 177°
2026-05-09 18:25 35.95380 -78.81712 33689 ft 437 kts 177°
2026-05-09 18:26 35.92502 -78.80516 33428 ft 435 kts 177°
2026-05-09 18:26 35.89636 -78.79338 33180 ft 431 kts 178°
2026-05-09 18:26 35.86791 -78.78549 32914 ft 408 kts 189°
2026-05-09 18:26 35.84040 -78.78468 32652 ft 387 kts 199°
2026-05-09 18:27 35.81377 -78.78765 32440 ft 382 kts 201°
2026-05-09 18:27 35.79632 -78.79022 32293 ft 381 kts 201°
2026-05-09 18:27 35.76119 -78.79527 31963 ft 380 kts 201°
2026-05-09 18:27 35.73475 -78.79838 31724 ft 382 kts 199°
2026-05-09 18:28 35.70834 -78.80101 31470 ft 381 kts 199°
2026-05-09 18:28 35.68218 -78.80345 31221 ft 380 kts 198°
2026-05-09 18:28 35.65586 -78.80597 30975 ft 379 kts 199°
2026-05-09 18:28 35.62966 -78.80866 30725 ft 377 kts 199°
2026-05-09 18:29 35.60345 -78.81145 30476 ft 378 kts 199°
2026-05-09 18:29 35.57727 -78.81422 30236 ft 377 kts 198°
2026-05-09 18:29 35.55112 -78.81693 30017 ft 376 kts 198°
2026-05-09 18:29 35.52503 -78.81963 29772 ft 375 kts 198°
2026-05-09 18:30 35.49906 -78.82232 29522 ft 374 kts 198°
2026-05-09 18:30 35.47318 -78.82499 29257 ft 373 kts 198°
2026-05-09 18:30 35.44741 -78.82763 28907 ft 370 kts 198°
2026-05-09 18:30 35.42173 -78.83022 28503 ft 368 kts 197°
2026-05-09 18:31 35.39629 -78.83289 28169 ft 367 kts 197°
2026-05-09 18:31 35.37080 -78.83558 27913 ft 368 kts 197°
2026-05-09 18:31 35.34568 -78.83819 27594 ft 367 kts 197°
2026-05-09 18:31 35.32026 -78.84082 27187 ft 365 kts 197°
2026-05-09 18:32 35.29501 -78.84342 26762 ft 364 kts 197°
2026-05-09 18:32 35.26977 -78.84599 26317 ft 363 kts 196°
2026-05-09 18:32 35.24461 -78.84859 25890 ft 362 kts 196°
2026-05-09 18:32 35.21956 -78.85117 25475 ft 361 kts 196°
2026-05-09 18:33 35.19462 -78.85373 25058 ft 359 kts 195°
2026-05-09 18:33 35.16970 -78.85630 24607 ft 359 kts 195°
2026-05-09 18:33 35.14484 -78.85887 24166 ft 359 kts 195°
2026-05-09 18:33 35.11996 -78.86141 23743 ft 358 kts 195°
2026-05-09 18:34 35.09519 -78.86394 23321 ft 357 kts 195°
2026-05-09 18:34 35.07047 -78.86649 22903 ft 356 kts 194°
2026-05-09 18:34 35.04583 -78.86903 22483 ft 355 kts 194°
2026-05-09 18:34 35.02156 -78.87153 22062 ft 354 kts 194°
2026-05-09 18:35 34.99699 -78.87405 21634 ft 354 kts 194°
2026-05-09 18:35 34.97251 -78.87654 21195 ft 353 kts 194°
2026-05-09 18:35 34.94795 -78.87886 20651 ft 354 kts 193°
2026-05-09 18:35 34.92349 -78.88101 20205 ft 352 kts 193°
2026-05-09 18:36 34.89918 -78.88309 19763 ft 349 kts 193°
2026-05-09 18:36 34.88312 -78.88449 19471 ft 347 kts 193°
2026-05-09 18:36 34.85912 -78.88664 19039 ft 344 kts 193°
2026-05-09 18:36 34.83530 -78.88885 18620 ft 341 kts 193°
2026-05-09 18:37 34.81175 -78.89104 18223 ft 338 kts 193°
2026-05-09 18:37 34.78846 -78.89319 17832 ft 334 kts 193°
2026-05-09 18:37 34.76528 -78.89529 17442 ft 331 kts 193°
2026-05-09 18:37 34.74233 -78.89734 17017 ft 329 kts 193°
2026-05-09 18:38 34.71981 -78.89938 16607 ft 327 kts 193°
2026-05-09 18:38 34.69719 -78.90144 16220 ft 324 kts 193°
2026-05-09 18:38 34.67479 -78.90350 15834 ft 322 kts 193°
2026-05-09 18:40 34.53357 -78.91630 13360 ft 305 kts 193°
2026-05-09 18:40 34.51248 -78.91821 12991 ft 303 kts 192°
2026-05-09 18:40 34.49153 -78.92008 12627 ft 300 kts 193°
2026-05-09 18:41 34.47075 -78.92198 12257 ft 298 kts 192°
2026-05-09 18:41 34.45019 -78.92387 11882 ft 296 kts 192°
2026-05-09 18:41 34.42971 -78.92574 11505 ft 294 kts 192°
2026-05-09 18:41 34.40933 -78.92759 11132 ft 293 kts 192°
2026-05-09 18:42 34.38906 -78.92940 10748 ft 292 kts 191°
2026-05-09 18:42 34.36887 -78.93122 10381 ft 290 kts 191°
2026-05-09 18:42 34.34885 -78.93304 10032 ft 287 kts 191°
2026-05-09 18:42 34.32897 -78.93486 9675 ft 285 kts 190°
2026-05-09 18:43 34.30919 -78.93663 9316 ft 283 kts 190°
2026-05-09 18:43 34.28987 -78.93832 8985 ft 281 kts 189°
2026-05-09 18:43 34.27051 -78.94002 8665 ft 279 kts 189°
2026-05-09 18:43 34.25112 -78.94176 8313 ft 279 kts 189°
2026-05-09 18:44 34.23180 -78.94350 7958 ft 277 kts 189°
2026-05-09 18:44 34.21267 -78.94520 7638 ft 274 kts 189°
2026-05-09 18:44 34.19371 -78.94692 7301 ft 272 kts 189°
2026-05-09 18:44 34.17487 -78.94862 6944 ft 271 kts 189°
2026-05-09 18:45 34.15613 -78.95030 6588 ft 269 kts 189°
2026-05-09 18:45 34.13750 -78.95193 6251 ft 267 kts 188°
2026-05-09 18:45 34.11900 -78.95357 5937 ft 265 kts 188°
2026-05-09 18:45 34.10343 -78.95488 5772 ft 255 kts 188°
2026-05-09 18:46 34.08676 -78.95627 5614 ft 241 kts 189°
2026-05-09 18:46 34.07047 -78.95776 5463 ft 228 kts 189°
2026-05-09 18:46 34.05510 -78.95926 5327 ft 215 kts 189°
2026-05-09 18:46 34.04088 -78.96055 5199 ft 203 kts 189°
2026-05-09 18:47 34.02693 -78.96170 5028 ft 193 kts 189°
2026-05-09 18:47 34.01361 -78.96292 4625 ft 196 kts 189°
2026-05-09 18:47 33.99998 -78.96417 4268 ft 196 kts 189°
2026-05-09 18:47 33.98637 -78.96536 3906 ft 196 kts 188°
2026-05-09 18:48 33.97282 -78.96649 3569 ft 194 kts 188°
2026-05-09 18:48 33.95930 -78.96764 3277 ft 195 kts 188°
2026-05-09 18:48 33.94602 -78.96874 3076 ft 188 kts 188°
2026-05-09 18:48 33.93323 -78.96983 2892 ft 181 kts 188°
2026-05-09 18:49 33.92079 -78.97088 2681 ft 178 kts 188°
2026-05-09 18:49 33.90841 -78.97199 2590 ft 178 kts 188°
2026-05-09 18:49 33.89663 -78.97284 2498 ft 178 kts 187°
2026-05-09 18:49 33.88423 -78.97391 2421 ft 179 kts 188°
2026-05-09 18:50 33.87182 -78.97504 2363 ft 180 kts 186°
2026-05-09 18:50 33.85935 -78.97332 2269 ft 182 kts 173°
2026-05-09 18:50 33.84713 -78.97021 2213 ft 181 kts 172°
2026-05-09 18:50 33.83533 -78.96721 2140 ft 166 kts 173°
2026-05-09 18:51 33.82428 -78.96448 2058 ft 160 kts 173°
2026-05-09 18:51 33.81335 -78.96175 1994 ft 160 kts 173°
2026-05-09 18:51 33.80239 -78.95900 1987 ft 161 kts 172°
2026-05-09 18:51 33.79143 -78.95629 1965 ft 161 kts 172°
2026-05-09 18:52 33.78050 -78.95353 1792 ft 160 kts 171°
2026-05-09 18:52 33.76961 -78.95079 1582 ft 159 kts 171°
2026-05-09 18:52 33.75920 -78.94818 1379 ft 146 kts 169°
2026-05-09 18:52 33.74961 -78.94580 1190 ft 137 kts 169°
2026-05-09 18:53 33.74028 -78.94347 1009 ft 137 kts 167°
2026-05-09 18:53 33.73097 -78.94113 826 ft 136 kts 167°
2026-05-09 18:53 33.72169 -78.93881 644 ft 136 kts 167°
2026-05-09 18:53 33.71244 -78.93650 461 ft 136 kts 167°
2026-05-09 18:54 33.70322 -78.93424 277 ft 135 kts 168°
2026-05-09 18:54 33.69401 -78.93196 100 ft 135 kts 167°
2026-05-09 18:54 33.68538 -78.92974 39 ft 108 kts 168°
2026-05-09 18:54 33.67977 -78.92834 39 ft 57 kts 169°
2026-05-09 18:55 33.67700 -78.92763 39 ft 29 kts 167°
2026-05-09 18:55 33.67552 -78.92644 39 ft 23 kts 139°
2026-05-09 18:55 33.67430 -78.92509 39 ft 25 kts 137°
2026-05-09 18:55 33.67349 -78.92379 39 ft 14 kts 99°
2026-05-09 18:56 33.67411 -78.92333 39 ft 14 kts 346°
2026-05-09 18:56 33.67492 -78.92358 39 ft 0 kts 346°
2026-05-09 18:58 33.67493 -78.92358 39 ft 1 kts 346°
2026-05-09 18:59 33.67575 -78.92382 39 ft 23 kts 346°
2026-05-09 18:59 33.67730 -78.92428 39 ft 25 kts 343°
2026-05-09 18:59 33.67906 -78.92501 39 ft 28 kts 341°
2026-05-09 18:59 33.67956 -78.92521 39 ft 0 kts 341°
2026-05-09 19:00 33.67968 -78.92526 39 ft 5 kts 341°
2026-05-09 19:00 33.68195 -78.92482 39 ft 14 kts 19°
2026-05-09 19:00 33.68232 -78.92447 39 ft 4 kts 72°
2026-05-09 19:01 33.68239 -78.92409 39 ft 4 kts 78°